Location: Ferchesar
(52.6477°N, 12.4298°E)
Time: 04:36:55
(UTC+01:00)

Vanguard 1 - Pass Details

Date: 12 December 2021
Orbit: 652 x 3830 km, 34.2° (Epoch: 21 January)

Event Time Altitude Azimuth Distance (km) Brightness Sun altitude
Rises 21:34:29 0° 219° (SW) 6,109 14.2 -49.0°
Reaches altitude 10° 21:38:29 10° 211° (SSW) 5,491 13.8 -49.6°
Enters shadow 21:42:15 19° 201° (SSW) 5,046 13.5 -50.0°
Maximum altitude 21:53:55 36° 153° (SSE) 4,724 - -51.5°
Drops below altitude 10° 22:13:25 10° 97° (E) 6,902 - -53.7°
Sets 22:19:15 0° 91° (E) 7,793 - -54.4°
